BEL8AM EBBR-LDDU

Flight info

Callsign BEL8AM
Flight time N/A
Altitude 37000
Route SOPOK Y863 ROPUV L607 EMGOD DCT MOVUM T109 HAREM Z74 LAMPU DCT NOMBO Y161 MAH DCT VAVOR DCT RADIZ DCT GIMIX DCT SABAD DCT SIPAL
Aircraft A20N/M-DE3FGHIJ1LORVWY/HB1G1

Departure

Time 2026-05-08 06:39
Airport Brussels Airport (EBBR)

Arrival

Time N/A
Airport Dubrovnik Ruđer Bošković Airport (LDDU)
Time Latitude Longitude Altitude Speed Heading
2026-05-08 06:29 50.90138 4.48390 193 ft 2 kts 28°
2026-05-08 06:29 50.90128 4.48375 193 ft 0 kts 60°
2026-05-08 06:30 50.90125 4.48366 193 ft 1 kts 68°
2026-05-08 06:30 50.90125 4.48362 193 ft 0 kts 66°
2026-05-08 06:31 50.90128 4.48374 193 ft 2 kts 63°
2026-05-08 06:32 50.90139 4.48411 193 ft 4 kts 65°
2026-05-08 06:32 50.90157 4.48474 193 ft 7 kts 65°
2026-05-08 06:32 50.90182 4.48561 193 ft 9 kts 65°
2026-05-08 06:32 50.90214 4.48671 193 ft 11 kts 65°
2026-05-08 06:33 50.90251 4.48800 193 ft 13 kts 65°
2026-05-08 06:33 50.90291 4.48937 193 ft 14 kts 64°
2026-05-08 06:33 50.90332 4.49080 193 ft 14 kts 65°
2026-05-08 06:33 50.90375 4.49230 193 ft 15 kts 65°
2026-05-08 06:34 50.90409 4.49349 193 ft 10 kts 65°
2026-05-08 06:34 50.90441 4.49458 193 ft 11 kts 65°
2026-05-08 06:34 50.90449 4.49552 193 ft 8 kts 134°
2026-05-08 06:34 50.90393 4.49567 193 ft 9 kts 195°
2026-05-08 06:35 50.90325 4.49539 193 ft 10 kts 194°
2026-05-08 06:35 50.90248 4.49508 193 ft 11 kts 194°
2026-05-08 06:35 50.90164 4.49474 193 ft 12 kts 194°
2026-05-08 06:35 50.90074 4.49437 193 ft 13 kts 194°
2026-05-08 06:36 50.89978 4.49398 193 ft 14 kts 194°
2026-05-08 06:36 50.89879 4.49357 193 ft 15 kts 194°
2026-05-08 06:36 50.89774 4.49315 193 ft 15 kts 194°
2026-05-08 06:36 50.89666 4.49272 193 ft 14 kts 193°
2026-05-08 06:37 50.89582 4.49202 193 ft 14 kts 205°
2026-05-08 06:37 50.89485 4.49155 193 ft 14 kts 192°
2026-05-08 06:37 50.89386 4.49115 193 ft 15 kts 194°
2026-05-08 06:37 50.89288 4.49076 193 ft 14 kts 194°
2026-05-08 06:38 50.89189 4.49035 193 ft 15 kts 194°
2026-05-08 06:38 50.89137 4.49033 193 ft 3 kts 130°
2026-05-08 06:38 50.89144 4.49082 193 ft 5 kts 70°
2026-05-08 06:38 50.89221 4.49412 193 ft 71 kts 69°
2026-05-08 06:39 50.89476 4.50521 193 ft 140 kts 70°
2026-05-08 06:39 50.89868 4.52212 362 ft 179 kts 69°
2026-05-08 06:39 50.90305 4.54175 761 ft 201 kts 69°
2026-05-08 06:39 50.90908 4.56306 1224 ft 223 kts 60°
2026-05-08 06:40 50.91675 4.58503 1957 ft 236 kts 59°
2026-05-08 06:40 50.92510 4.60845 2685 ft 250 kts 59°
2026-05-08 06:40 50.93341 4.63285 3635 ft 255 kts 63°
2026-05-08 06:40 50.93997 4.65836 4593 ft 258 kts 71°
2026-05-08 06:41 50.94543 4.68562 5549 ft 262 kts 72°
2026-05-08 06:41 50.95072 4.71321 6478 ft 266 kts 72°
2026-05-08 06:41 50.95588 4.74140 7374 ft 271 kts 77°
2026-05-08 06:41 50.95554 4.77100 8197 ft 278 kts 106°
2026-05-08 06:42 50.94608 4.79756 9031 ft 284 kts 134°
2026-05-08 06:42 50.93104 4.81789 9869 ft 289 kts 141°
2026-05-08 06:42 50.91508 4.83804 10616 ft 297 kts 141°
2026-05-08 06:42 50.89874 4.85937 11080 ft 314 kts 139°
2026-05-08 06:43 50.88199 4.88323 11532 ft 331 kts 137°
2026-05-08 06:43 50.86498 4.90800 12218 ft 338 kts 137°
2026-05-08 06:43 50.84774 4.93308 13003 ft 342 kts 137°
2026-05-08 06:43 50.82997 4.95879 13775 ft 346 kts 138°
2026-05-08 06:44 50.81227 4.98430 14507 ft 350 kts 138°
2026-05-08 06:44 50.79417 5.01027 15244 ft 354 kts 138°
2026-05-08 06:44 50.77575 5.03666 15984 ft 358 kts 138°
2026-05-08 06:44 50.75736 5.06296 16688 ft 361 kts 138°
2026-05-08 06:45 50.74492 5.08074 17156 ft 364 kts 138°